Location: Acton
(51.4942°N, 0.2232°W)
Time: 10:52:03
(UTC+00:00)

Okean 1-7 Rocket - Pass Details

Date: 19 January 2021
Orbit: 615 x 650 km, 82.5° (Epoch: 26 February)

Event Time Altitude Azimuth Distance (km) Brightness Sun altitude
Rises 18:51:26 0° 195° (SSW) 2,943 7.3 -21.7°
Reaches altitude 10° 18:53:41 10° 197° (SSW) 2,042 6.5 -22.1°
Maximum altitude 18:58:12 71° 281° (WNW) 693 3.9 -22.8°
Enters shadow 19:01:59 15° 5° (N) 1,744 5.8 -23.4°
